Weather History for Kivalina, AK

Change the Weather History Date:

Tuesday, May 14, 2013

  Actual Average Record
Temperature  
Mean Temperature 16 °F -  
Max Temperature 21 °F - - ()
Min Temperature 10 °F - - ()
Degree Days  
Heating Degree Days 50    
Moisture  
Dew Point 14 °F    
Average Humidity 90    
Maximum Humidity 96    
Minimum Humidity 79    
Precipitation  
Precipitation 0.01 in - - ()
Sea Level Pressure  
Sea Level Pressure 29.70 in    
Wind  
Wind Speed 11 mph (South)    
Max Wind Speed 25 mph    
Max Gust Speed -    
Visibility 4 miles    
Events Snow    
T = Trace of Precipitation, MM = Missing Value Source: NWS Daily Summary

Daily Weather History Graph

Daily Weather History Graph

Search for Another Location

Airport:

Trip Planner

Search our weather history database for the weather conditions in past years. The results will help you decide how hot, cold, wet, or windy it might be!

Date:

Astronomy

May. 14, 2013 Rise Set
Actual Time 4:53 AM AKDT 1:00 AM AKDT
Civil Twilight Sun does not rise Sun does not rise
Nautical Twilight Sun does not rise Sun does not rise
Astronomical Twilight Sun does not rise Sun does not rise
Moon 9:02 AM AKDT (5/14) 3:58 AM AKDT (5/14)
Length of Visible Light 24h 00m
Length of Day
20h 07m
Waxing Crescent, 20% of the Moon is Illuminated
May 14
Waxing Crescent
May 17
First Quarter
May 24
Full
May 31
Last Quarter
Jun 8
New

Hourly Weather History & Observations

Time (AKDT) Temp. Windchill Dew Point Humidity Pressure Visibility Wind Dir Wind Speed Gust Speed Precip Events Conditions
12:53 AM 10.0 °F -2.9 °F 6.1 °F 84% 29.87 in 10.0 mi NNW 9.2 mph - N/A   Mostly Cloudy
1:53 AM 10.9 °F 0.2 °F 7.0 °F 84% 29.86 in 10.0 mi NW 6.9 mph - N/A   Overcast
2:53 AM 10.9 °F -0.8 °F 7.0 °F 84% 29.85 in 10.0 mi NNW 8.1 mph - N/A   Overcast
3:53 AM 10.9 °F 0.2 °F 8.1 °F 88% 29.84 in 10.0 mi NNW 6.9 mph - N/A   Overcast
4:53 AM 10.9 °F 1.4 °F 8.1 °F 88% 29.82 in 10.0 mi NNW 5.8 mph - N/A   Overcast
5:53 AM 10.9 °F 4.7 °F 8.1 °F 88% 29.81 in 2.5 mi WNW 3.5 mph - 0.00 in Snow Light Snow
6:00 AM 10.4 °F - 8.6 °F 92% 29.80 in 1.8 mi Calm Calm - 0.00 in Snow Light Snow
6:13 AM 10.4 °F 2.2 °F 8.6 °F 92% 29.80 in 2.5 mi NW 4.6 mph - 0.00 in Snow Light Snow
6:21 AM 10.4 °F 0.8 °F 8.6 °F 92% 29.80 in 6.0 mi WNW 5.8 mph - 0.00 in   Overcast
6:53 AM 10.9 °F -3.4 °F 8.1 °F 88% 29.79 in 10.0 mi West 11.5 mph - 0.00 in   Overcast
7:15 AM 10.4 °F -2.4 °F 8.6 °F 92% 29.79 in 10.0 mi West 9.2 mph - N/A   Overcast
7:32 AM 12.2 °F -0.2 °F 8.6 °F 85% 29.78 in 3.0 mi West 9.2 mph - 0.00 in Snow Light Snow
7:35 AM 12.2 °F -1.0 °F 8.6 °F 85% 29.78 in 2.0 mi West 10.4 mph - 0.00 in Snow Light Snow
7:53 AM 10.9 °F -2.6 °F 9.0 °F 92% 29.78 in 2.5 mi West 10.4 mph - 0.00 in Snow Light Snow
8:14 AM 12.2 °F -0.2 °F 8.6 °F 85% 29.77 in 3.0 mi West 9.2 mph - 0.00 in Snow Light Snow
8:53 AM 12.0 °F -0.4 °F 9.0 °F 88% 29.77 in 2.5 mi WSW 9.2 mph - 0.00 in Snow Light Snow
9:24 AM 10.4 °F -1.5 °F 8.6 °F 92% 29.77 in 3.0 mi WSW 8.1 mph - 0.00 in Snow Light Snow
9:53 AM 12.0 °F 1.5 °F 8.1 °F 84% 29.77 in 5.0 mi WSW 6.9 mph - 0.00 in Snow Light Snow
10:53 AM 12.0 °F 2.7 °F 10.0 °F 92% 29.76 in 6.0 mi SSW 5.8 mph - 0.00 in Snow Light Snow
12:10 PM 14.0 °F 0.5 °F 10.4 °F 86% 29.74 in 1.5 mi South 11.5 mph - 0.00 in Snow Light Snow
12:25 PM 14.0 °F 1.2 °F 10.4 °F 86% 29.74 in 2.5 mi South 10.4 mph - 0.00 in Snow Light Snow
12:32 PM 14.0 °F 0.5 °F 10.4 °F 86% 29.74 in 4.0 mi South 11.5 mph - 0.00 in Snow Light Snow
12:53 PM 14.0 °F 1.2 °F 10.9 °F 88% 29.73 in 4.0 mi South 10.4 mph - 0.00 in Snow Light Snow
1:03 PM 14.0 °F 0.5 °F 10.4 °F 86% 29.73 in 5.0 mi South 11.5 mph - 0.00 in Snow Light Snow
1:49 PM 15.8 °F 2.1 °F 12.2 °F 86% 29.72 in 4.0 mi South 12.7 mph - 0.00 in Snow Light Snow
1:53 PM 15.1 °F 1.1 °F 12.0 °F 88% 29.72 in 4.0 mi South 12.7 mph - 0.00 in Snow Light Snow
2:53 PM 16.0 °F 1.7 °F 12.9 °F 88% 29.71 in 2.5 mi South 13.8 mph - 0.00 in Snow Light Snow
3:01 PM 17.6 °F 3.2 °F 12.2 °F 79% 29.70 in 5.0 mi South 15.0 mph - 0.00 in Snow Light Snow
3:23 PM 17.6 °F 4.3 °F 14.0 °F 86% 29.69 in 8.0 mi South 12.7 mph - 0.00 in Snow Light Snow
3:47 PM 17.6 °F 5.0 °F 15.8 °F 93% 29.69 in 1.8 mi South 11.5 mph - 0.00 in Snow Light Snow
3:53 PM 17.1 °F 3.0 °F 14.0 °F 88% 29.69 in 1.5 mi South 13.8 mph - 0.00 in Snow Light Snow
4:12 PM 17.6 °F 5.0 °F 15.8 °F 93% 29.68 in 2.5 mi SSE 11.5 mph - 0.00 in Snow Light Snow
4:22 PM 17.6 °F 3.7 °F 15.8 °F 93% 29.68 in 4.0 mi SSE 13.8 mph - 0.00 in Snow Light Snow
4:53 PM 19.0 °F 5.6 °F 16.0 °F 88% 29.67 in 5.0 mi SSE 13.8 mph - 0.00 in Snow Light Snow
5:00 PM 19.4 °F 6.6 °F 15.8 °F 86% 29.66 in 2.5 mi SSE 12.7 mph - 0.00 in Snow Light Snow
5:14 PM 19.4 °F 6.6 °F 17.6 °F 93% 29.66 in 6.0 mi SSE 12.7 mph - 0.00 in Snow Light Snow
5:53 PM 19.9 °F 7.3 °F 18.0 °F 92% 29.65 in 3.0 mi South 12.7 mph - 0.00 in Snow Light Snow
6:10 PM 19.4 °F 5.5 °F 17.6 °F 93% 29.64 in 1.8 mi SSE 15.0 mph - 0.00 in Snow Light Snow
6:34 PM 19.4 °F 5.5 °F 17.6 °F 93% 29.64 in 2.0 mi SSE 15.0 mph - 0.00 in Snow Light Snow
6:48 PM 19.4 °F 5.5 °F 17.6 °F 93% 29.64 in 4.0 mi SSE 15.0 mph - 0.00 in Snow Light Snow
6:53 PM 19.9 °F 6.7 °F 17.1 °F 89% 29.64 in 4.0 mi SSE 13.8 mph - 0.00 in Snow Light Snow
7:19 PM 21.2 °F 8.3 °F 19.4 °F 93% 29.63 in 1.8 mi South 13.8 mph - 0.00 in Snow Light Snow
7:41 PM 21.2 °F 7.3 °F 19.4 °F 93% 29.62 in 3.0 mi South 16.1 mph - 0.00 in Snow Light Snow
7:51 PM 21.2 °F 7.3 °F 19.4 °F 93% 29.62 in 2.5 mi South 16.1 mph - 0.00 in Snow Light Snow
7:53 PM 21.0 °F 7.1 °F 19.0 °F 92% 29.62 in 2.5 mi South 16.1 mph - 0.00 in Snow Light Snow
8:03 PM 21.2 °F 6.8 °F 19.4 °F 93% 29.62 in 1.5 mi South 17.3 mph - 0.00 in Snow Light Snow
8:33 PM 21.2 °F 6.4 °F 17.6 °F 86% 29.61 in 2.5 mi South 18.4 mph - 0.00 in Snow Light Snow
8:53 PM 21.0 °F 5.7 °F 19.0 °F 92% 29.60 in 2.0 mi South 19.6 mph - 0.00 in Snow Light Snow
9:15 PM 21.2 °F 6.4 °F 17.6 °F 86% 29.60 in 1.8 mi South 18.4 mph - 0.00 in Snow Light Snow
9:22 PM 21.2 °F 6.4 °F 19.4 °F 93% 29.59 in 1.2 mi South 18.4 mph - 0.00 in Snow Light Snow
9:45 PM 21.2 °F 6.0 °F 19.4 °F 93% 29.59 in 2.5 mi South 19.6 mph - 0.00 in Snow Light Snow
9:53 PM 21.0 °F 5.4 °F 19.0 °F 92% 29.59 in 1.2 mi South 20.7 mph - 0.00 in Snow Light Snow
10:32 PM 19.4 °F 3.6 °F 17.6 °F 93% 29.58 in 2.0 mi SSE 19.6 mph - 0.01 in Snow Light Snow
10:40 PM 19.4 °F 2.5 °F 17.6 °F 93% 29.57 in 1.2 mi SSE 23.0 mph - 0.01 in Snow Light Snow
10:53 PM 19.0 °F 1.6 °F 18.0 °F 96% 29.58 in 1.0 mi South 24.2 mph - 0.01 in Snow Light Snow
11:35 PM 19.4 °F 2.1 °F 17.6 °F 93% 29.57 in 0.8 mi SSE 24.2 mph - 0.00 in Snow Light Snow
11:49 PM 19.4 °F 2.1 °F 17.6 °F 93% 29.56 in 1.0 mi SSE 24.2 mph - 0.00 in Snow Light Snow
11:53 PM 19.0 °F 1.3 °F 17.1 °F 92% 29.56 in 0.8 mi SSE 25.3 mph - 0.00 in Snow Light Snow